Location: Lugano
(46.0000°N, 8.9670°E)
Time: 16:59:41
(UTC+02:00)

Envisat - Pass Details

Date: 12 March 2026
Orbit: 761 x 762 km, 98.4° (Epoch: 19 April)

Event Time Altitude Azimuth Distance (km) Brightness Sun altitude
Rises 02:19:15 0° 22° (NNE) 3,235 7.0 -41.6°
Reaches altitude 10° 02:21:48 10° 33° (NNE) 2,304 6.1 -41.3°
Enters shadow 02:23:04 16° 42° (NE) 1,895 5.6 -41.2°
